Tracking 29892 objects as of 21-Nov-2024
HD Live streaming from Space Station
objects crossing your sky now

CZ-6A DEB

Track CZ-6A DEB now!
10-day predictions


NORAD ID: 56640
Int'l Code: 2022-151AFQ
Perigee: 829.5 km
Apogee: 1,024.9 km
Inclination: 98.7 °
Period: 103.4 minutes
Semi major axis: 7298 km
RCS: Unknown
Launch date: November 11, 2022
Source: People's Republic of China (PRC)
Launch site: Taiyaun Space Center, China (TSC)

Note: This is SATELLITE DEBRIS
Your satellite tracking list
Your tracking list is empty




NASA's NSSDC Master Catalog

Two Line Element Set (TLE):
1 56640U 22151AFQ 24324.70672839  .00002201  00000-0  16191-2 0  9994
2 56640  98.7477 293.5758 0133886 218.0738 141.0904 13.92446395 84852
Source of the keplerian elements: AFSPC